Location: Krakow
(50.0830°N, 19.9170°E)
Time: 21:20:09
(UTC+01:00)

Altair - Pass Details

Date: 06 December 2023
Orbit: 1501 x 1682 km, 47.2° (Epoch: 03 March)

Event Time Altitude Azimuth Distance (km) Brightness Sun altitude
Rises 11:50:23 0° 278° (W) 4,752 10.0 17.3°
Reaches altitude 10° 11:53:31 10° 276° (W) 3,744 9.6 17.3°
Maximum altitude 12:02:49 67° 197° (SSW) 1,629 8.4 17.1°
Drops below altitude 10° 12:11:52 10° 117° (ESE) 3,651 9.8 16.9°
Sets 12:14:52 0° 115° (ESE) 4,628 10.2 16.8°
